Weather History for Cambridge, MD

Change the Weather History Date:

Saturday, November 9, 2013

  Actual Average (KESN) Record (KESN)
Temperature  
Mean Temperature 44 °F -  
Max Temperature 55 °F 58 °F 75 °F (1975)
Min Temperature 32 °F 39 °F 25 °F (1967)
Degree Days  
Heating Degree Days 22    
Moisture  
Dew Point 31 °F    
Average Humidity 61    
Maximum Humidity 93    
Minimum Humidity 38    
Precipitation  
Precipitation 0.00 in - - ()
Sea Level Pressure  
Sea Level Pressure 30.24 in    
Wind  
Wind Speed 3 mph (South)    
Max Wind Speed 12 mph    
Max Gust Speed 18 mph    
Visibility 10 miles    
Events      
Averages and records for this station are not official NWS values.
T = Trace of Precipitation, MM = Missing Value Source: NWS Daily Summary

Daily Weather History Graph

Daily Weather History Graph

Search for Another Location

Airport:

Trip Planner

Search our weather history database for the weather conditions in past years. The results will help you decide how hot, cold, wet, or windy it might be!

Date:

Astronomy

Nov. 09, 2013 Rise Set
Actual Time 6:39 AM EST 4:55 PM EST
Civil Twilight 6:11 AM EST 5:23 PM EST
Nautical Twilight 5:39 AM EST 5:55 PM EST
Astronomical Twilight 5:08 AM EST 6:26 PM EST
Moon 12:15 PM EST (11/9) 11:22 PM EST (11/9)
Length of Visible Light 11h 12m
Length of Day
10h 16m
Waxing Crescent, 44% of the Moon is Illuminated
Nov 9
Waxing Crescent
Nov 10
First Quarter
Nov 17
Full
Nov 25
Last Quarter
Dec 2
New

Hourly Weather History & Observations

Time (EST) Temp. Windchill Dew Point Humidity Pressure Visibility Wind Dir Wind Speed Gust Speed Precip Events Conditions
12:15 AM 42.8 °F 41.1 °F 28.4 °F 57% 30.32 in 10.0 mi NNW 3.5 mph - N/A   Clear
12:35 AM 42.8 °F - 28.4 °F 57% 30.32 in 10.0 mi Calm Calm - N/A   Clear
12:55 AM 42.8 °F - 28.4 °F 57% 30.32 in 10.0 mi Calm Calm - N/A   Clear
1:15 AM 35.6 °F - 28.4 °F 75% 30.31 in 10.0 mi Calm Calm - N/A   Clear
1:35 AM 35.6 °F - 30.2 °F 81% 30.32 in 10.0 mi Calm Calm - N/A   Clear
1:55 AM 33.8 °F - 28.4 °F 81% 30.32 in 10.0 mi Calm Calm - N/A   Clear
2:15 AM 33.8 °F - 28.4 °F 81% 30.32 in 10.0 mi Calm Calm - N/A   Clear
2:35 AM 32.0 °F - 28.4 °F 87% 30.32 in 10.0 mi Calm Calm - N/A   Clear
2:55 AM 32.0 °F - 28.4 °F 87% 30.33 in 10.0 mi Calm Calm - N/A   Clear
3:15 AM 32.0 °F - 30.2 °F 93% 30.32 in 10.0 mi Calm Calm - N/A   Clear
3:35 AM 32.0 °F - 28.4 °F 87% 30.33 in 10.0 mi Calm Calm - N/A   Clear
3:55 AM 32.0 °F - 28.4 °F 87% 30.33 in 10.0 mi Calm Calm - N/A   Clear
4:15 AM 32.0 °F - 28.4 °F 87% 30.33 in 10.0 mi Calm Calm - N/A   Clear
4:35 AM 32.0 °F - 28.4 °F 87% 30.33 in 10.0 mi Calm Calm - N/A   Clear
4:55 AM 32.0 °F - 28.4 °F 87% 30.33 in 10.0 mi Calm Calm - N/A   Clear
5:15 AM 32.0 °F - 28.4 °F 87% 30.33 in 10.0 mi Calm Calm - N/A   Clear
5:35 AM 32.0 °F - 28.4 °F 87% 30.33 in 10.0 mi Calm Calm - N/A   Clear
5:55 AM 32.0 °F - 28.4 °F 87% 30.34 in 10.0 mi Calm Calm - N/A   Clear
6:15 AM 32.0 °F - 28.4 °F 87% 30.34 in 10.0 mi Calm Calm - N/A   Clear
6:35 AM 32.0 °F - 28.4 °F 87% 30.33 in 10.0 mi Calm Calm - N/A   Clear
6:56 AM 32.0 °F 27.5 °F 28.4 °F 87% 30.34 in 10.0 mi SSE 4.6 mph - N/A   Clear
7:16 AM 32.0 °F - 28.4 °F 87% 30.34 in 10.0 mi Calm Calm - N/A   Clear
7:36 AM 33.8 °F - 30.2 °F 87% 30.35 in 10.0 mi Calm Calm - N/A   Clear
7:56 AM 35.6 °F - 32.0 °F 87% 30.36 in 10.0 mi Calm Calm - N/A   Clear
8:16 AM 37.4 °F - 33.8 °F 87% 30.36 in 10.0 mi Calm Calm - N/A   Clear
8:36 AM 42.8 °F - 33.8 °F 70% 30.37 in 10.0 mi Calm Calm - N/A   Clear
8:56 AM 44.6 °F - 32.0 °F 61% 30.36 in 10.0 mi Calm Calm - N/A   Clear
9:16 AM 48.2 °F - 32.0 °F 54% 30.34 in 10.0 mi Calm Calm - N/A   Clear
9:36 AM 48.2 °F - 30.2 °F 50% 30.34 in 10.0 mi Calm Calm - N/A   Clear
9:56 AM 51.8 °F - 30.2 °F 44% 30.34 in 10.0 mi Calm Calm - N/A   Clear
10:16 AM 51.8 °F - 30.2 °F 44% 30.34 in 10.0 mi South 3.5 mph - N/A   Clear
10:36 AM 51.8 °F - 30.2 °F 44% 30.33 in 10.0 mi SW 4.6 mph - N/A   Clear
10:56 AM 51.8 °F - 30.2 °F 44% 30.32 in 10.0 mi WSW 5.8 mph - N/A   Clear
11:16 AM 51.8 °F - 30.2 °F 44% 30.31 in 10.0 mi Calm Calm - N/A   Clear
11:36 AM 53.6 °F - 30.2 °F 41% 30.30 in 10.0 mi SSW 5.8 mph - N/A   Clear
11:56 AM 53.6 °F - 30.2 °F 41% 30.28 in 10.0 mi South 8.1 mph - N/A   Clear
12:16 PM 53.6 °F - 30.2 °F 41% 30.27 in 10.0 mi SW 8.1 mph - N/A   Clear
12:36 PM 53.6 °F - 30.2 °F 41% 30.26 in 10.0 mi SSW 6.9 mph - N/A   Clear
12:56 PM 53.6 °F - 30.2 °F 41% 30.25 in 10.0 mi SSW 9.2 mph - N/A   Clear
1:16 PM 53.6 °F - 30.2 °F 41% 30.24 in 10.0 mi SSW 9.2 mph - N/A   Clear
1:36 PM 53.6 °F - 30.2 °F 41% 30.23 in 10.0 mi South 6.9 mph 16.1 mph N/A   Clear
1:56 PM 53.6 °F - 28.4 °F 38% 30.22 in 10.0 mi South 10.4 mph - N/A   Clear
2:16 PM 55.4 °F - 30.2 °F 38% 30.21 in 10.0 mi SSW 9.2 mph - N/A   Clear
2:36 PM 55.4 °F - 30.2 °F 38% 30.20 in 10.0 mi SW 10.4 mph - N/A   Clear
2:56 PM 53.6 °F - 30.2 °F 41% 30.20 in 10.0 mi South 9.2 mph - N/A   Clear
3:16 PM 53.6 °F - 32.0 °F 44% 30.20 in 10.0 mi South 8.1 mph - N/A   Clear
3:37 PM 53.6 °F - 32.0 °F 44% 30.19 in 10.0 mi South 6.9 mph - N/A   Clear
3:57 PM 53.6 °F - 33.8 °F 47% 30.18 in 10.0 mi South 4.6 mph - N/A   Clear
4:17 PM 51.8 °F - 35.6 °F 54% 30.18 in 10.0 mi SSE 5.8 mph - N/A   Clear
4:37 PM 51.8 °F - 35.6 °F 54% 30.18 in 10.0 mi South 4.6 mph - N/A   Clear
4:57 PM 51.8 °F - 35.6 °F 54% 30.17 in 10.0 mi South 8.1 mph - N/A   Clear
5:17 PM 51.8 °F - 37.4 °F 58% 30.16 in 10.0 mi South 6.9 mph - N/A   Clear
5:37 PM 51.8 °F - 39.2 °F 62% 30.16 in 10.0 mi South 5.8 mph - N/A   Clear
5:57 PM 48.2 °F - 37.4 °F 66% 30.16 in 10.0 mi South 5.8 mph - N/A   Clear
6:17 PM 48.2 °F - 37.4 °F 66% 30.17 in 10.0 mi SSE 3.5 mph - N/A   Clear
6:37 PM 44.6 °F 41.4 °F 33.8 °F 66% 30.16 in 10.0 mi SSE 5.8 mph - N/A   Clear
6:57 PM 44.6 °F 43.1 °F 33.8 °F 66% 30.15 in 10.0 mi SSE 3.5 mph - N/A   Clear
7:17 PM 44.6 °F 42.2 °F 33.8 °F 66% 30.15 in 10.0 mi South 4.6 mph - N/A   Clear
7:37 PM 50.0 °F - 35.6 °F 58% 30.12 in 10.0 mi South 9.2 mph - N/A   Scattered Clouds
7:57 PM 53.6 °F - 33.8 °F 47% 30.12 in 10.0 mi SSW 11.5 mph 16.1 mph N/A   Scattered Clouds
8:17 PM 53.6 °F - 32.0 °F 44% 30.11 in 10.0 mi SSW 11.5 mph 18.4 mph N/A   Clear
8:37 PM 53.6 °F - 32.0 °F 44% 30.12 in 10.0 mi SSW 9.2 mph 16.1 mph N/A   Clear
8:57 PM 51.8 °F - 32.0 °F 47% 30.11 in 10.0 mi SSW 11.5 mph 17.3 mph N/A   Clear
9:17 PM 51.8 °F - 32.0 °F 47% 30.10 in 10.0 mi SSW 5.8 mph - N/A   Clear
9:37 PM 51.8 °F - 32.0 °F 47% 30.10 in 10.0 mi South 5.8 mph - N/A   Clear
9:57 PM 51.8 °F - 32.0 °F 47% 30.09 in 10.0 mi SSW 6.9 mph - N/A   Clear
10:17 PM 51.8 °F - 32.0 °F 47% 30.09 in 10.0 mi SSW 4.6 mph - N/A   Clear
10:37 PM 51.8 °F - 32.0 °F 47% 30.08 in 10.0 mi SSW 5.8 mph - N/A   Clear
10:57 PM 51.8 °F - 33.8 °F 50% 30.07 in 10.0 mi South 4.6 mph - N/A   Clear
11:17 PM 51.8 °F - 33.8 °F 50% 30.07 in 10.0 mi South 4.6 mph - N/A   Clear
11:37 PM 50.0 °F - 33.8 °F 54% 30.06 in 10.0 mi South 4.6 mph - N/A   Clear
11:57 PM 51.8 °F - 33.8 °F 50% 30.06 in 10.0 mi SSW 4.6 mph - N/A   Clear